Time,TemperatureF,DewpointF,PressureIn,WindDirection,WindDirectionDegrees,WindSpeedMPH,WindSpeedGustMPH,Humidity,HourlyPrecipIn,Conditions,Clouds,dailyrainin,SoftwareType,DateUTC
2013-02-13 00:02:00,35.0,24.0,29.83,North,350,0.0,0.0,64,0.00,,,0.15,,2013-02-13 05:02:00,
2013-02-13 00:11:00,35.0,24.0,29.83,North,349,0.0,0.0,64,0.00,,,0.14,,2013-02-13 05:11:00,
2013-02-13 00:22:00,35.0,24.0,29.83,North,349,0.0,0.0,64,0.00,,,0.14,,2013-02-13 05:22:00,
2013-02-13 00:32:00,35.0,24.0,29.83,North,349,0.0,0.0,64,0.00,,,0.14,,2013-02-13 05:32:00,
2013-02-13 00:42:00,35.0,24.0,29.83,North,349,0.0,0.0,64,0.00,,,0.14,,2013-02-13 05:42:00,
2013-02-13 00:52:00,35.0,24.0,29.83,North,349,0.0,0.0,64,0.00,,,0.14,,2013-02-13 05:52:00,
2013-02-13 01:02:00,34.0,23.0,29.83,North,349,0.0,0.0,63,0.00,,,0.14,,2013-02-13 06:02:00,
2013-02-13 01:11:00,34.0,22.0,29.83,North,349,0.0,0.0,62,0.00,,,0.14,,2013-02-13 06:11:00,
2013-02-13 01:21:00,34.0,22.0,29.83,North,349,0.0,0.0,62,0.00,,,0.14,,2013-02-13 06:21:00,
2013-02-13 01:32:00,34.0,21.0,29.84,North,349,0.0,0.0,59,0.00,,,0.14,,2013-02-13 06:32:00,
2013-02-13 01:42:00,34.0,21.0,29.84,North,349,0.0,0.0,59,0.00,,,0.14,,2013-02-13 06:42:00,
2013-02-13 01:51:00,34.0,21.0,29.84,North,349,0.0,0.0,59,0.00,,,0.14,,2013-02-13 06:51:00,
2013-02-13 02:02:00,33.0,21.0,29.83,North,349,0.0,0.0,61,0.00,,,0.14,,2013-02-13 07:02:00,
2013-02-13 02:11:00,33.0,21.0,29.83,NNW,347,0.0,0.0,61,0.00,,,0.14,,2013-02-13 07:11:00,
2013-02-13 02:22:00,33.0,21.0,29.83,NNW,347,0.0,0.0,61,0.00,,,0.14,,2013-02-13 07:22:00,
2013-02-13 02:32:00,33.0,21.0,29.85,NNW,347,0.0,0.0,61,0.00,,,0.14,,2013-02-13 07:32:00,
2013-02-13 02:42:00,34.0,22.0,29.85,NNW,347,0.0,0.0,62,0.00,,,0.14,,2013-02-13 07:42:00,
2013-02-13 02:51:00,34.0,22.0,29.85,NNW,347,0.0,0.0,62,0.00,,,0.14,,2013-02-13 07:51:00,
2013-02-13 03:01:00,34.0,22.0,29.86,North,349,0.0,0.0,62,0.00,,,0.14,,2013-02-13 08:01:00,
2013-02-13 03:11:00,34.0,23.0,29.86,North,349,0.0,0.0,63,0.00,,,0.14,,2013-02-13 08:11:00,
2013-02-13 03:21:00,34.0,23.0,29.86,North,349,0.0,0.0,63,0.00,,,0.14,,2013-02-13 08:21:00,
2013-02-13 03:32:00,33.0,23.0,29.85,NNW,347,0.0,0.0,65,0.00,,,0.14,,2013-02-13 08:32:00,
2013-02-13 03:43:00,33.0,23.0,29.85,NNW,347,0.0,0.0,65,0.00,,,0.14,,2013-02-13 08:43:00,
2013-02-13 03:52:00,33.0,22.0,29.85,NNW,347,0.0,0.0,64,0.00,,,0.14,,2013-02-13 08:52:00,
2013-02-13 04:02:00,33.0,22.0,29.85,NNW,347,0.0,0.0,63,0.00,,,0.14,,2013-02-13 09:02:00,
2013-02-13 04:11:00,34.0,23.0,29.84,NNW,347,0.0,0.0,64,0.00,,,0.14,,2013-02-13 09:11:00,
2013-02-13 04:21:00,34.0,23.0,29.84,NNW,347,0.0,0.0,64,0.00,,,0.14,,2013-02-13 09:21:00,
2013-02-13 04:32:00,34.0,23.0,29.85,NNW,347,0.0,0.0,64,0.00,,,0.14,,2013-02-13 09:32:00,
2013-02-13 04:42:00,34.0,23.0,29.85,NNW,346,0.0,0.0,65,0.00,,,0.14,,2013-02-13 09:42:00,
2013-02-13 04:51:00,34.0,23.0,29.85,NNW,346,0.0,0.0,65,0.00,,,0.14,,2013-02-13 09:51:00,
2013-02-13 05:01:00,33.0,23.0,29.85,NNW,347,0.0,0.0,65,0.00,,,0.14,,2013-02-13 10:01:00,
2013-02-13 05:11:00,33.0,23.0,29.85,NNW,347,0.0,0.0,65,0.00,,,0.14,,2013-02-13 10:11:00,
2013-02-13 05:21:00,33.0,23.0,29.85,NNW,347,0.0,0.0,65,0.00,,,0.14,,2013-02-13 10:21:00,
2013-02-13 05:32:00,33.0,22.0,29.83,North,349,0.0,0.0,64,0.00,,,0.14,,2013-02-13 10:32:00,
2013-02-13 05:42:00,33.0,23.0,29.83,NNW,347,0.0,0.0,65,0.00,,,0.14,,2013-02-13 10:42:00,
2013-02-13 05:51:00,33.0,23.0,29.83,NNW,347,0.0,0.0,65,0.00,,,0.14,,2013-02-13 10:51:00,
2013-02-13 06:01:00,33.0,23.0,29.83,NNW,347,0.0,0.0,67,0.00,,,0.14,,2013-02-13 11:01:00,
2013-02-13 06:11:00,33.0,23.0,29.83,North,349,0.0,0.0,65,0.00,,,0.14,,2013-02-13 11:11:00,
2013-02-13 06:22:00,33.0,23.0,29.83,North,349,0.0,0.0,65,0.00,,,0.14,,2013-02-13 11:22:00,
2013-02-13 06:32:00,33.0,23.0,29.83,NNW,347,0.0,0.0,65,0.00,,,0.14,,2013-02-13 11:32:00,
2013-02-13 06:42:00,33.0,23.0,29.83,NNW,347,0.0,0.0,66,0.00,,,0.14,,2013-02-13 11:42:00,
2013-02-13 06:52:00,33.0,23.0,29.83,NNW,347,0.0,0.0,66,0.00,,,0.14,,2013-02-13 11:52:00,
2013-02-13 07:02:00,32.0,22.0,29.83,NNW,347,0.0,0.0,66,0.00,,,0.14,,2013-02-13 12:02:00,
2013-02-13 07:11:00,32.0,22.0,29.82,North,349,0.0,0.0,67,0.00,,,0.14,,2013-02-13 12:11:00,
2013-02-13 07:22:00,32.0,22.0,29.82,North,349,0.0,0.0,67,0.00,,,0.14,,2013-02-13 12:22:00,
2013-02-13 07:32:00,32.0,23.0,29.83,North,349,0.0,0.0,69,0.00,,,0.14,,2013-02-13 12:32:00,
2013-02-13 07:42:00,32.0,23.0,29.83,NNW,347,0.0,0.0,70,0.00,,,0.14,,2013-02-13 12:42:00,
2013-02-13 07:52:00,32.0,23.0,29.83,NNW,347,0.0,0.0,70,0.00,,,0.14,,2013-02-13 12:52:00,
2013-02-13 08:02:00,32.0,23.0,29.83,North,349,0.0,0.0,69,0.00,,,0.14,,2013-02-13 13:02:00,
2013-02-13 08:11:00,32.0,23.0,29.84,North,349,0.0,0.0,69,0.00,,,0.14,,2013-02-13 13:11:00,
2013-02-13 08:21:00,32.0,23.0,29.84,North,349,0.0,0.0,69,0.00,,,0.14,,2013-02-13 13:21:00,
2013-02-13 08:32:00,32.0,22.0,29.84,North,349,0.0,0.0,67,0.00,,,0.14,,2013-02-13 13:32:00,
2013-02-13 08:42:00,33.0,23.0,29.84,NNW,347,0.0,0.0,65,0.00,,,0.14,,2013-02-13 13:42:00,
2013-02-13 08:52:00,33.0,23.0,29.84,NNW,347,0.0,0.0,65,0.00,,,0.14,,2013-02-13 13:52:00,
2013-02-13 09:01:00,36.0,23.0,29.83,NNW,347,0.0,0.0,58,0.00,,,0.14,,2013-02-13 14:01:00,
2013-02-13 09:11:00,37.0,23.0,29.83,NNW,347,0.0,0.0,56,0.00,,,0.12,,2013-02-13 14:11:00,
2013-02-13 09:21:00,37.0,23.0,29.83,NNW,347,0.0,0.0,56,0.00,,,0.12,,2013-02-13 14:21:00,
2013-02-13 09:32:00,38.0,23.0,29.82,NNW,347,0.0,0.0,54,0.00,,,0.12,,2013-02-13 14:32:00,
2013-02-13 09:42:00,39.0,22.0,29.82,NNW,347,0.0,0.0,51,0.00,,,0.11,,2013-02-13 14:42:00,
2013-02-13 09:52:00,39.0,22.0,29.82,NNW,347,0.0,0.0,51,0.00,,,0.11,,2013-02-13 14:52:00,
2013-02-13 10:01:00,40.0,24.0,29.82,NNW,347,0.0,0.0,52,0.00,,,0.10,,2013-02-13 15:01:00,
2013-02-13 10:11:00,41.0,23.0,29.82,NNW,347,0.0,0.0,49,0.00,,,0.10,,2013-02-13 15:11:00,
2013-02-13 10:21:00,41.0,23.0,29.82,NNW,347,0.0,0.0,49,0.00,,,0.10,,2013-02-13 15:21:00,
2013-02-13 10:32:00,41.0,24.0,29.80,NNW,347,0.0,0.0,51,0.00,,,0.09,,2013-02-13 15:32:00,
2013-02-13 10:42:00,41.0,24.0,29.80,NNW,347,0.0,0.0,51,0.00,,,0.09,,2013-02-13 15:42:00,
2013-02-13 10:51:00,41.0,24.0,29.80,NNW,347,0.0,0.0,51,0.00,,,0.08,,2013-02-13 15:51:00,
2013-02-13 11:01:00,42.0,24.0,29.80,NNW,347,0.0,0.0,48,0.00,,,0.08,,2013-02-13 16:01:00,
2013-02-13 11:11:00,41.0,23.0,29.80,NNW,346,0.0,0.0,49,0.00,,,0.07,,2013-02-13 16:11:00,
2013-02-13 11:21:00,41.0,23.0,29.80,NNW,346,0.0,0.0,49,0.00,,,0.07,,2013-02-13 16:21:00,
2013-02-13 11:32:00,41.0,23.0,29.79,North,353,0.0,0.0,49,0.00,,,0.07,,2013-02-13 16:32:00,
2013-02-13 11:42:00,41.0,23.0,29.79,North,353,0.0,0.0,49,0.00,,,0.07,,2013-02-13 16:42:00,
2013-02-13 11:51:00,40.0,22.0,29.79,North,353,0.0,0.0,48,0.00,,,0.06,,2013-02-13 16:51:00,
2013-02-13 12:02:00,39.0,21.0,29.78,North,352,0.0,0.0,49,0.00,,,0.05,,2013-02-13 17:02:00,
2013-02-13 12:11:00,40.0,24.0,29.78,North,352,0.0,0.0,52,0.00,,,0.05,,2013-02-13 17:11:00,
2013-02-13 12:21:00,40.0,24.0,29.78,North,352,0.0,0.0,52,0.00,,,0.05,,2013-02-13 17:21:00,
2013-02-13 12:32:00,40.0,24.0,29.78,North,352,0.0,0.0,52,0.00,,,0.05,,2013-02-13 17:32:00,
2013-02-13 12:42:00,40.0,24.0,29.78,North,352,0.0,0.0,52,0.00,,,0.05,,2013-02-13 17:42:00,
2013-02-13 12:52:00,40.0,23.0,29.78,North,350,0.0,0.0,50,0.00,,,0.04,,2013-02-13 17:52:00,
2013-02-13 13:02:00,40.0,22.0,29.77,North,352,0.0,0.0,49,0.00,,,0.04,,2013-02-13 18:02:00,
2013-02-13 13:11:00,41.0,23.0,29.77,North,352,0.0,0.0,48,0.00,,,0.04,,2013-02-13 18:11:00,
2013-02-13 13:23:00,41.0,23.0,29.77,North,352,0.0,0.0,48,0.00,,,0.04,,2013-02-13 18:23:00,
2013-02-13 13:32:00,41.0,23.0,29.77,North,352,0.0,0.0,48,0.00,,,0.03,,2013-02-13 18:32:00,
2013-02-13 13:42:00,41.0,23.0,29.77,North,352,0.0,0.0,48,0.00,,,0.03,,2013-02-13 18:42:00,
2013-02-13 13:52:00,42.0,23.0,29.74,North,352,0.0,0.0,47,0.00,,,0.03,,2013-02-13 18:52:00,
2013-02-13 14:01:00,42.0,22.0,29.73,North,0,0.0,0.0,45,0.00,,,0.02,,2013-02-13 19:01:00,
2013-02-13 14:11:00,42.0,22.0,29.73,North,0,0.0,0.0,44,0.00,,,0.02,,2013-02-13 19:11:00,
2013-02-13 14:21:00,42.0,22.0,29.73,North,0,0.0,0.0,44,0.00,,,0.02,,2013-02-13 19:21:00,
2013-02-13 14:32:00,43.0,22.0,29.71,North,0,0.0,0.0,43,0.00,,,0.01,,2013-02-13 19:32:00,
2013-02-13 14:42:00,43.0,22.0,29.71,North,0,0.0,0.0,43,0.00,,,0.01,,2013-02-13 19:42:00,
2013-02-13 14:51:00,43.0,23.0,29.71,North,0,0.0,0.0,44,0.00,,,0.01,,2013-02-13 19:51:00,
2013-02-13 15:02:00,42.0,23.0,29.69,North,0,0.0,0.0,46,0.00,,,0.01,,2013-02-13 20:02:00,
2013-02-13 15:11:00,43.0,24.0,29.70,North,0,0.0,0.0,46,0.00,,,0.01,,2013-02-13 20:11:00,
2013-02-13 15:21:00,43.0,24.0,29.70,North,0,0.0,0.0,46,0.00,,,0.01,,2013-02-13 20:21:00,
2013-02-13 15:32:00,42.0,22.0,29.70,North,0,0.0,0.0,45,0.00,,,0.01,,2013-02-13 20:32:00,
2013-02-13 15:42:00,42.0,23.0,29.70,North,0,0.0,0.0,46,0.00,,,0.01,,2013-02-13 20:42:00,
2013-02-13 15:52:00,42.0,23.0,29.70,North,0,0.0,0.0,46,0.00,,,0.01,,2013-02-13 20:52:00,
2013-02-13 16:01:00,42.0,22.0,29.69,North,0,0.0,0.0,44,0.00,,,0.00,,2013-02-13 21:01:00,
2013-02-13 16:11:00,42.0,22.0,29.69,North,0,0.0,0.0,44,0.00,,,0.00,,2013-02-13 21:11:00,
2013-02-13 16:21:00,42.0,23.0,29.69,North,0,0.0,0.0,47,0.00,,,0.00,,2013-02-13 21:21:00,
2013-02-13 16:32:00,41.0,23.0,29.68,North,0,0.0,0.0,48,0.00,,,0.00,,2013-02-13 21:32:00,
2013-02-13 16:42:00,41.0,22.0,29.68,North,0,0.0,0.0,47,0.00,,,0.00,,2013-02-13 21:42:00,
2013-02-13 16:52:00,41.0,22.0,29.68,North,0,0.0,0.0,47,0.00,,,0.00,,2013-02-13 21:52:00,
2013-02-13 17:02:00,40.0,23.0,29.67,North,0,0.0,0.0,50,0.00,,,0.00,,2013-02-13 22:02:00,
2013-02-13 17:11:00,40.0,24.0,29.67,North,0,0.0,0.0,53,0.00,,,0.00,,2013-02-13 22:11:00,
2013-02-13 17:21:00,40.0,24.0,29.67,North,0,0.0,0.0,53,0.00,,,0.00,,2013-02-13 22:21:00,
2013-02-13 17:32:00,39.0,23.0,29.68,North,356,0.0,0.0,53,0.00,,,0.00,,2013-02-13 22:32:00,
2013-02-13 17:42:00,39.0,23.0,29.68,North,356,0.0,0.0,53,0.00,,,0.00,,2013-02-13 22:42:00,
2013-02-13 17:51:00,39.0,23.0,29.67,North,356,0.0,0.0,53,0.00,,,0.00,,2013-02-13 22:51:00,
2013-02-13 18:02:00,38.0,24.0,29.67,North,356,0.0,0.0,57,0.00,,,0.00,,2013-02-13 23:02:00,
2013-02-13 18:11:00,38.0,25.0,29.67,North,354,0.0,0.0,60,0.00,,,0.00,,2013-02-13 23:11:00,
2013-02-13 18:21:00,38.0,25.0,29.67,North,354,0.0,0.0,60,0.00,,,0.00,,2013-02-13 23:21:00,
2013-02-13 18:32:00,37.0,24.0,29.67,North,356,0.0,0.0,60,0.00,,,0.00,,2013-02-13 23:32:00,
2013-02-13 18:42:00,37.0,24.0,29.67,North,356,0.0,0.0,60,0.00,,,0.00,,2013-02-13 23:42:00,
2013-02-13 18:52:00,36.0,26.0,29.66,North,356,0.0,0.0,66,0.00,,,0.00,,2013-02-13 23:52:00,
2013-02-13 19:02:00,36.0,27.0,29.67,North,357,0.0,0.0,70,0.00,,,0.00,,2013-02-14 00:02:00,
2013-02-13 19:11:00,36.0,27.0,29.67,North,357,0.0,0.0,70,0.00,,,0.00,,2013-02-14 00:11:00,
2013-02-13 19:22:00,36.0,28.0,29.67,North,357,0.0,0.0,72,0.00,,,0.00,,2013-02-14 00:22:00,
2013-02-13 19:32:00,35.0,27.0,29.67,North,357,0.0,0.0,72,0.00,,,0.00,,2013-02-14 00:32:00,
2013-02-13 19:42:00,35.0,27.0,29.67,North,357,0.0,0.0,72,0.00,,,0.00,,2013-02-14 00:42:00,
2013-02-13 19:51:00,35.0,28.0,29.66,North,357,0.0,0.0,75,0.00,,,0.00,,2013-02-14 00:51:00,
2013-02-13 20:01:00,35.0,28.0,29.67,North,356,0.0,0.0,76,0.00,,,0.00,,2013-02-14 01:01:00,
2013-02-13 20:11:00,34.0,28.0,29.67,North,356,0.0,0.0,77,0.00,,,0.00,,2013-02-14 01:11:00,
2013-02-13 20:21:00,34.0,28.0,29.67,North,356,0.0,0.0,77,0.00,,,0.00,,2013-02-14 01:21:00,
2013-02-13 20:32:00,35.0,28.0,29.66,North,349,0.0,0.0,75,0.00,,,0.00,,2013-02-14 01:32:00,
2013-02-13 20:41:00,35.0,28.0,29.66,North,349,0.0,0.0,75,0.00,,,0.00,,2013-02-14 01:41:00,
2013-02-13 20:51:00,35.0,27.0,29.66,North,350,0.0,0.0,73,0.00,,,0.00,,2013-02-14 01:51:00,
2013-02-13 21:01:00,35.0,29.0,29.66,North,352,0.0,0.0,77,0.00,,,0.00,,2013-02-14 02:01:00,
2013-02-13 21:11:00,34.0,28.0,29.66,North,352,0.0,0.0,77,0.00,,,0.00,,2013-02-14 02:11:00,
2013-02-13 21:21:00,34.0,28.0,29.66,North,352,0.0,0.0,77,0.00,,,0.00,,2013-02-14 02:21:00,
2013-02-13 21:31:00,34.0,28.0,29.67,North,352,0.0,0.0,78,0.00,,,0.00,,2013-02-14 02:31:00,
2013-02-13 21:41:00,34.0,28.0,29.67,North,352,0.0,0.0,78,0.00,,,0.00,,2013-02-14 02:41:00,
2013-02-13 21:51:00,34.0,28.0,29.67,North,352,0.0,0.0,78,0.00,,,0.00,,2013-02-14 02:51:00,
2013-02-13 22:02:00,34.0,26.0,29.67,North,352,0.0,0.0,72,0.00,,,0.00,,2013-02-14 03:02:00,
2013-02-13 22:11:00,35.0,24.0,29.67,North,352,0.0,0.0,65,0.00,,,0.00,,2013-02-14 03:11:00,
2013-02-13 22:22:00,35.0,24.0,29.67,North,352,0.0,0.0,65,0.00,,,0.00,,2013-02-14 03:22:00,
2013-02-13 22:31:00,35.0,26.0,29.67,North,353,0.0,0.0,70,0.00,,,0.00,,2013-02-14 03:31:00,
2013-02-13 22:42:00,35.0,26.0,29.67,North,353,0.0,0.0,70,0.00,,,0.00,,2013-02-14 03:42:00,
2013-02-13 22:51:00,34.0,28.0,29.67,North,352,0.0,0.0,77,0.00,,,0.00,,2013-02-14 03:51:00,
2013-02-13 23:01:00,33.0,28.0,29.67,North,352,0.0,0.0,82,0.00,,,0.00,,2013-02-14 04:01:00,
2013-02-13 23:12:00,33.0,29.0,29.67,North,353,0.0,0.0,85,0.00,,,0.00,,2013-02-14 04:12:00,
2013-02-13 23:21:00,33.0,29.0,29.67,North,353,0.0,0.0,85,0.00,,,0.00,,2013-02-14 04:21:00,
2013-02-13 23:32:00,32.0,29.0,29.67,North,352,0.0,0.0,89,0.00,,,0.00,,2013-02-14 04:32:00,
2013-02-13 23:42:00,32.0,29.0,29.67,North,352,0.0,0.0,89,0.00,,,0.00,,2013-02-14 04:42:00,
2013-02-13 23:52:00,32.0,29.0,29.66,North,353,0.0,0.0,90,0.00,,,0.00,,2013-02-14 04:52:00,